TIME,DELAY(SENSOR),PRES,T(CTD),SAL,OXYGEN,RAWTEMP,T(OPTODE),TCPHASE,FLUOR,BETA(BETA700),BETA(BETA412),BETA(BETA440),CDOM,C(CSC),ED(ED411.90),ED(ED443.80),ED(ED489.40),ED(ED554.70),LU(LU412.20),LU(LU443.80),LU(LU489.40),LU(LU555.00),COMP,TILTX,TILTX(TILTY),CHECK
1375974712,5808,497.5599975585937500,17.6229000091552730,36.4804000854492200,219.7870941162109400,167.8836059570312500,17.6168708801269530,31.6691703796386720,70,931,58,59,55,10501,2146959460,2147513645,2147272018,2147454272,2147079168,2146952393,2147651300,2147130413,1308,-2,8,8493
1375974884,5805,485.2000122070312500,17.7261009216308600,36.4986991882324200,220.4772033691406200,164.4962005615234400,17.7191104888916000,31.5867691040039060,69,933,58,58,55,10499,2146955849,2147514953,2147271451,2147450029,2147082770,2146953408,2147652397,2147127149,3468,-2,8,414
1375975003,5804,474.5499877929687500,17.7849998474121100,36.5087013244628900,221.1302032470703000,162.5148925781250000,17.7789096832275400,31.5257606506347660,70,926,59,57,55,10496,2146960210,2147511332,2147271030,2147451245,2147079012,2146950381,2147650340,2147124781,2522,-1,8,13999
1375975118,5805,463.5799865722656000,17.8749008178710940,36.5262985229492200,223.3063049316406200,159.6251983642578000,17.8661499023437500,31.3740806579589840,69,906,58,57,55,10501,2146960768,2147515382,2147271661,2147450066,2147081197,2146954203,2147649133,2147129252,1501,-1,8,14996
1375975236,5804,452.5299987792969000,17.9242000579834000,36.5306015014648440,222.4786987304687500,157.6773986816406200,17.9249591827392580,31.3903903961181640,69,938,59,57,55,10498,2146960457,2147516946,2147269577,2147452781,2147079222,2146959296,2147644928,2147127058,1052,-1,8,53506
1375975363,5808,441.0000000000000000,17.9846000671386720,36.5385017395019500,222.9320068359375000,155.7295989990234400,17.9837799072265620,31.3406105041503900,69,930,58,57,55,10496,2146959085,2147517458,2147268352,2147452553,2147083446,2146953344,2147645357,2147125622,147,-1,8,54348
1375975480,5805,430.4800109863281000,18.0314006805419920,36.5433006286621100,222.8365020751953000,154.2353973388672000,18.0289096832275400,31.3252506256103500,69,918,57,56,54,10493,2146959277,2147516480,2147270509,2147449197,2147084571,2146958052,2147646976,2147128384,2901,-1,8,5181
1375975607,5807,419.4299926757812500,18.0881996154785160,36.5495986938476560,223.6242980957031200,152.4208984375000000,18.0837097167968750,31.2601699829101560,69,920,58,57,55,10498,2146960219,2147513526,2147266157,2147449782,2147079844,2146958445,2147648356,2147128182,1891,-2,8,64751
1375975734,5806,408.6300048828125000,18.1655998229980470,36.5573997497558600,223.2781066894531200,149.9351959228515600,18.1588001251220700,31.2445392608642580,69,935,57,57,54,10495,2146958948,2147514779,2147270326,2147451008,2147077504,2146953828,2147649216,2147124672,1234,-2,8,43352
1375975864,5802,397.7999877929687500,18.2122993469238280,36.5633010864257800,222.1309967041015600,148.3511962890625000,18.2066497802734380,31.2818298339843750,70,933,57,57,54,10497,2146957778,2147515922,2147269275,2147447716,2147073353,2146955264,2147649435,2147125833,191,-1,8,14981
1375976003,5805,386.2200012207031000,18.2707004547119140,36.5671997070312500,220.7032928466797000,146.3585052490234400,18.2668590545654300,31.3289508819580080,70,935,57,57,54,10498,2146958957,2147514761,2147272411,2147447286,2147072438,2146953444,2147645906,2147126464,3389,-2,8,37831
1375976132,5808,375.3500061035156000,18.3092994689941400,36.5707015991210940,220.9597015380859400,145.0989074707031200,18.3049297332763670,31.2983398437500000,69,933,57,58,54,10499,2146958518,2147518016,2147267401,2147449865,2147067382,2146954038,2147647424,2147127744,2724,-1,8,20453
1375976259,5805,364.5199890136719000,18.3626003265380860,36.5704002380371100,221.8802032470703000,143.4020996093750000,18.3562107086181640,31.2280197143554700,70,955,59,58,55,10498,2146963401,2147515986,2147268553,2147449398,2147081618,2146953782,2147650185,2147128283,2411,-2,8,61508
1375976386,5807,353.7900085449219000,18.3850002288818360,36.5634994506835940,228.1851959228515600,142.5395050048828000,18.3822803497314450,30.8974304199218750,69,931,58,56,54,10497,2146959323,2147513782,2147267300,2147447899,2147078921,2146955282,2147647890,2147128329,1168,-2,8,4960
1375976528,5806,341.9400024414062500,18.4328002929687500,36.5685997009277340,231.5879974365234400,141.1112060546875000,18.4254493713378900,30.7106208801269530,71,941,59,56,54,10496,2146960594,2147512704,2147267593,2147447533,2147079488,2146957833,2147651008,2147130706,401,-2,8,56135
1375976655,5809,331.6300048828125000,18.4603996276855470,36.5639991760253900,234.3406982421875000,140.0424957275390600,18.4577598571777340,30.5626907348632800,70,945,59,57,54,10494,2146960402,2147512859,2147267309,2147447040,2147072201,2146958034,2147647762,2147127707,2658,-1,8,32859
1375976796,5803,320.2699890136719000,18.5261001586914060,36.5722007751464840,234.8265991210937500,137.9718017578125000,18.5203609466552730,30.5120697021484380,68,922,57,58,53,10495,2146959076,2147516626,2147268059,2147448685,2147068553,2146955492,2147650578,2147129846,2175,-1,8,14667
1375976935,5804,309.3699951171875000,18.6065006256103500,36.5792999267578100,229.2048950195312500,135.0970001220703000,18.6072998046875000,30.7476406097412100,70,948,58,58,54,10494,2146961526,2147515337,2147267904,2147446564,2147076443,2146953920,2147653741,2147130075,2388,-2,8,23254
1375977083,5809,297.8599853515625000,18.7462997436523440,36.5988006591796900,220.8211059570312500,130.5175018310547000,18.7458190917968750,31.1094398498535160,68,919,58,57,54,10496,2146960219,2147515949,2147266285,2147449609,2147074532,2146957568,2147652781,2147128557,1908,-1,8,35806
1375977203,5804,286.8099975585937500,18.9148998260498050,36.6222991943359400,212.7743988037109400,125.0753021240234400,18.9105091094970700,31.4603195190429700,68,938,57,57,54,10492,2146958756,2147512237,2147267062,2147444909,2147078281,2146961161,2147653019,2147129965,1124,-1,8,31873
1375977318,5804,275.8099975585937500,19.0245990753173830,36.6213989257812500,213.3921966552734400,121.3927001953125000,19.0219898223876950,31.3773899078369140,69,933,58,59,54,10494,2146958720,2147511972,2147267657,2147444059,2147074770,2146958144,2147655213,2147127890,196,-1,7,12235
1375977436,5804,264.6499938964844000,19.0951004028320300,36.6138000488281250,217.3572998046875000,119.2349014282226600,19.0873298645019530,31.1384391784667970,69,916,58,57,54,10494,2146958006,2147512192,2147268013,2147443840,2147075264,2146957229,2147653129,2147129234,2497,-2,8,1855
1375977551,5806,254.0000000000000000,19.1898002624511720,36.6039009094238300,224.2899017333984400,115.9114990234375000,19.1879901885986330,30.7377490997314450,69,940,57,57,53,10491,2146959926,2147514157,2147265398,2147443209,2147081435,2146958198,2147651099,2147130249,1331,-2,8,60864
1375977666,5807,243.2799987792968800,19.2971992492675780,36.5950012207031250,227.8822021484375000,112.4140014648437500,19.2939491271972660,30.5118904113769530,70,944,57,57,54,10493,2146959890,2147514377,2147267218,2147444269,2147079396,2146973632,2147682468,2147128768,997,-1,8,56832
1375977784,5805,232.1999969482422000,19.4120998382568360,36.6041984558105500,230.5037994384765600,108.8328018188476600,19.4025001525878900,30.3361301422119140,69,937,58,57,53,10495,2146958500,2147515657,2147267840,2147442916,2147078683,2146973056,2147690678,2147133156,3481,-1,8,61064
1375977899,5805,221.3300018310547000,19.5380001068115230,36.6018981933593750,234.4754028320312500,104.1373977661132800,19.5448703765869140,30.0832099914550780,69,930,58,58,54,10492,2146959003,2147514304,2147269202,2147440393,2147080822,2146981824,2147720576,2147132498,3066,-1,8,7983
1375978028,5806,209.6499938964843800,19.9531993865966800,36.6273994445800800,234.0023040771484400,90.4002838134765600,19.9617996215820300,29.9269409179687500,70,931,57,58,53,10485,2146959296,2147514230,2147266852,2147445833,2147080320,2146991442,2147750217,2147135817,539,-1,9,24952
1375978167,5805,198.3699951171875000,20.3684997558593750,36.6596984863281250,232.5359039306640600,77.3509292602539000,20.3584709167480470,29.8274898529052730,70,951,57,58,54,10480,2146958336,2147512237,2147267702,2147442340,2147087204,2146994157,2147737764,2147132525,3402,-2,8,14240
1375978222,5805,194.3300018310547000,20.4020004272460940,36.6601982116699200,232.8811950683593800,75.9700317382812500,20.4004898071289060,29.7929801940917970,70,935,57,58,54,10479,2146961938,2147515574,2147268123,2147438070,2147084205,2147011501,2147768859,2147135442,2747,-2,9,44520
1375978277,5803,190.5399932861328000,20.4328002929687500,36.6329994201660160,236.1262969970703000,75.3936233520507800,20.4180202484130860,29.6321907043457030,71,934,58,57,55,10473,2146960301,2147515300,2147266395,2147438902,2147082816,2147007094,2147754386,2147135204,2579,-2,9,19681
1375978358,5807,186.2599945068359400,20.7872009277343750,36.5679016113281250,248.9669952392578000,63.1112709045410160,20.7920703887939450,28.8926601409912100,70,944,58,57,53,10466,2146958144,2147515364,2147272054,2147437568,2147090861,2147050724,2147886573,2147141248,2831,-2,8,45022
1375978473,5802,183.5000000000000000,21.3199005126953120,36.5987014770507800,257.0546875000000000,48.3915710449218750,21.2411708831787100,28.3597793579101560,72,950,56,59,53,10463,2146953883,2147514048,2147272448,2147438674,2147092873,2147068416,2147917293,2147143981,1600,-1,8,9483
1375978697,5804,178.8200073242187500,21.8108005523681640,36.7028007507324200,235.3885955810547000,30.8469390869140620,21.7777500152587900,29.0971508026123050,71,942,57,58,52,10472,2146959616,2147513846,2147268900,2147432036,2147088219,2147022994,2147784539,2147141897,2093,-1,9,29805
1375978800,5805,174.8300018310547000,22.0056991577148440,36.7444992065429700,219.2742004394531200,24.0269203186035160,21.9867401123046880,29.7910900115966800,72,949,57,58,54,10477,2146954889,2147515510,2147269714,2147432246,2147090861,2147054802,2147849993,2147142619,2347,-2,9,1255
1375978903,5805,171.0099945068359400,22.2793998718261720,36.7818984985351560,192.7375030517578000,16.0336208343505860,22.2319908142089840,31.1334209442138670,70,940,57,58,55,10472,2146959533,2147513590,2147272576,2147430866,2147098276,2147091200,2147934491,2147149952,1948,-1,8,51866
1375979014,5804,166.3000030517578000,22.3710002899169920,36.7882003784179700,178.6567993164062500,11.7216596603393550,22.3644199371337900,31.9425392150878900,70,934,58,57,55,10484,2146962697,2147520274,2147276105,2147427218,2147099931,2147142198,2148058797,2147154285,3001,-2,9,51190
1375979093,5807,162.5700073242187500,22.4857006072998050,36.7587013244628900,177.1618041992187500,8.0834903717041020,22.4762496948242200,31.9903297424316400,70,931,58,58,55,10482,2146960841,2147519908,2147273874,2147428443,2147105289,2147175296,2148114834,2147159524,2740,-2,9,61074
1375979184,5804,158.6900024414062500,22.5319995880126950,36.7279014587402340,183.4969024658203000,6.4584908485412600,22.5262107849121100,31.5655403137207030,70,932,57,57,56,10484,2146957668,2147521316,2147278537,2147429165,2147108827,2147199414,2148166619,2147165074,2374,-2,9,51667
1375979289,5805,154.8399963378906200,22.7362995147705080,36.6966018676757800,195.8287963867187500,0.2185284942388535,22.7182292938232420,30.7449207305908200,70,942,58,58,54,10483,2146961673,2147517120,2147277083,2147427318,2147112393,2147182994,2148110016,2147159680,1877,-2,9,50577
1375979428,5803,151.3099975585937500,22.8008995056152340,36.6953010559082000,201.3560028076172000,-2.2056429386138916,22.7928905487060550,30.4010696411132800,70,936,58,58,53,10485,2146959350,2147520182,2147276196,2147427593,2147119616,2147206866,2148149869,2147160320,1354,-1,9,54997
1375979609,5805,146.8600006103515600,23.0013999938964840,36.6861991882324200,205.4925994873047000,-9.2013092041015620,23.0085296630859380,30.0834407806396500,70,932,57,58,55,10483,2146961426,2147515419,2147267648,2147422372,2147101165,2147103305,2147888393,2147145142,1533,-2,9,5728
1375979724,5803,142.9199981689453000,23.3400001525878900,36.6589012145996100,209.3587036132812500,-19.0613498687744140,23.3129596710205080,29.7494392395019530,70,938,57,57,54,10483,2146958418,2147517010,2147271414,2147425453,2147117056,2147154989,2147984329,2147152374,1471,-2,9,53882
1375979863,5806,139.3899993896484400,23.6320991516113280,36.6623992919921900,208.7469024658203000,-27.5375404357910160,23.5751399993896500,29.6733207702636720,71,939,58,58,53,10478,2146962660,2147529472,2147298112,2147423734,2147191076,2147555501,2148805915,2147200694,1602,-1,9,37754
1375980044,5804,135.0899963378906200,24.0492000579834000,36.6666984558105500,198.9116058349609400,-41.8391609191894500,24.0185699462890620,30.0230998992919920,72,938,57,57,53,10473,2146962304,2147534290,2147306724,2147425499,2147230939,2147718436,2149088356,2147219556,2907,-2,9,56758
1375980262,5805,131.0899963378906200,24.3927001953125000,36.6197013854980500,195.8623046875000000,-53.2206382751464840,24.3724403381347660,30.0476207733154300,71,934,59,57,54,10472,2146965257,2147529408,2147297728,2147421568,2147214491,2147586240,2148807716,2147205952,3481,-2,8,10843
1375980425,5802,127.3600006103515600,24.6657009124755860,36.6110000610351560,190.7485961914062500,-61.7490615844726560,24.6382007598876950,30.2309303283691400,72,938,57,57,55,10473,2146963648,2147534436,2147310902,2147418889,2147263259,2147790381,2149167835,2147231250,3113,-1,9,4453
1375980606,5804,123.0000000000000000,24.9104003906250000,36.5857009887695300,189.0045013427734400,-69.7741165161132800,24.8887596130371100,30.2289695739746100,73,941,58,57,55,10468,2146966418,2147543890,2147320237,2147413741,2147330203,2147994084,2149508873,2147256493,3333,-2,9,37513
1375980871,5805,119.0800018310546900,25.2583999633789060,36.5494003295898440,190.7389984130859400,-81.2741165161132800,25.2486591339111330,29.9784393310546880,74,944,57,57,54,10456,2146973403,2147552256,2147343158,2147414180,2147457353,2148413293,2150231862,2147309714,3037,-2,9,15213
1375980998,5808,114.9100036621093800,25.4155998229980470,36.5194015502929700,198.6757049560547000,-86.2450866699218800,25.4045391082763670,29.4657096862792970,73,939,57,58,53,10460,2146970413,2147547346,2147329152,2147411858,2147444470,2148232950,2149804297,2147286290,2635,-1,9,42892
1375981167,5808,110.6100006103515600,25.5482006072998050,36.4861984252929700,207.8332061767578000,-90.7466735839843800,25.5458698272705080,28.9171905517578120,73,940,57,57,53,10457,2146984301,2147575378,2147383204,2147413769,2147779702,2149170770,2151336932,2147404617,1744,-1,9,52421
1375981270,5809,106.9100036621093800,25.7623996734619140,36.4322013854980500,210.9846038818359400,-96.8711700439453100,25.7384204864501950,28.6772804260253900,74,945,57,58,53,10446,2146987922,2147583862,2147391332,2147413513,2147918262,2149416850,2151616850,2147428342,1665,-2,9,57856
1375981421,5805,103.2799987792968800,25.9731998443603500,36.3799018859863300,214.8229980468750000,-103.3844985961914000,25.9435195922851560,28.4014492034912100,77,937,58,57,53,10434,2146988214,2147576109,2147380196,2147411995,2147901046,2149218404,2151181970,2147402688,1418,-2,9,39954
1375981579,5802,99.1100006103515600,26.0869007110595700,36.3513984680175800,214.9203948974609400,-107.5091018676757800,26.0735893249511720,28.3449707031250000,79,948,56,58,54,10423,2147000457,2147596827,2147410486,2147412498,2148234130,2149859218,2152083629,2147494829,1437,-1,9,57512
1375981646,5802,97.1699981689453100,26.1406993865966800,36.3381996154785160,218.3842926025390600,-109.1621017456054700,26.1257495880126950,28.1531105041503900,79,944,58,59,54,10412,2147008384,2147607378,2147439853,2147416859,2148467931,2150341412,2152795922,2147558674,1517,-1,9,8482
1375981725,5808,95.5699996948242200,26.2541999816894530,36.3132019042968750,221.4640960693359400,-112.6987991333007800,26.2374401092529300,27.9597396850585940,82,941,57,58,53,10399,2147016704,2147635885,2147487753,2147417216,2148834377,2151157430,2154043474,2147678180,1582,-2,9,4856
1375981846,5806,92.8600006103515600,26.3453006744384770,36.2910003662109400,226.8551025390625000,-116.1539001464843800,26.3466606140136720,27.6615791320800780,84,942,57,59,53,10387,2147038409,2147659456,2147545124,2147423040,2149337846,2151996205,2155236233,2147806829,880,-1,8,8054
1375981901,5808,91.0500030517578100,26.3911991119384770,36.2835006713867200,233.9990997314453000,-117.3996963500976600,26.3860607147216800,27.3189601898193360,84,947,57,58,53,10376,2147049371,2147679168,2147569152,2147424000,2149557641,2152339840,2155671268,2147867309,451,-1,8,27152
1375981968,5805,88.9300003051757800,26.4839992523193360,36.2652015686035160,238.3992004394531200,-120.0083999633789000,26.4686203002929700,27.0910892486572270,85,946,57,59,53,10363,2147063542,2147699510,2147588187,2147424768,2150029942,2153114048,2156681243,2147989184,2990,-2,9,6064
1375982023,5801,87.2099990844726600,26.5247993469238280,36.2574005126953100,244.3775024414062500,-121.4997024536132800,26.5158405303955080,26.8138809204101560,85,950,56,58,54,10363,2147036809,2147646491,2147483739,2147416219,2149221814,2151224356,2153692050,2147712246,2434,-2,9,49653
1375982119,5806,84.1500015258789000,26.5781993865966800,36.2495002746582000,241.4071960449218800,-124.0858001708984400,26.5977706909179700,26.9102897644042970,88,944,57,58,53,10349,2147082697,2147716800,2147607387,2147427766,2150540653,2153530834,2156864886,2148073261,1581,-1,9,43570
1375982174,5804,81.7399978637695300,26.7234001159667970,36.2187004089355500,250.3007965087890600,-127.7882995605468800,26.7151794433593750,26.4887008666992200,83,947,57,58,52,10357,2147124928,2147779072,2147707922,2147434825,2151613824,2155375003,2159306560,2148367232,1528,-2,9,54864
1375982229,5807,79.7900009155273400,26.7353000640869140,36.2084999084472660,263.6776123046875000,-128.3233032226562500,26.7321605682373050,25.9438991546630860,81,939,57,59,52,10372,2147096813,2147729124,2147611913,2147426660,2150733376,2153456146,2156203776,2148047360,1584,-1,9,6924
1375982284,5809,78.0599975585937500,26.7793998718261720,36.1938018798828100,255.2332000732422000,-129.7593994140625000,26.7777309417724600,26.2626800537109380,77,939,57,58,53,10381,2147027885,2147616256,2147408155,2147408886,2148985572,2150067574,2151294336,2147523702,1762,-2,9,10103
1375982351,5804,76.3099975585937500,26.8568000793457030,36.1893005371093750,243.3634033203125000,-132.0115966796875000,26.8492507934570300,26.7301902770996100,77,946,56,59,53,10373,2147046253,2147641234,2147446912,2147411721,2149471890,2150880082,2152279168,2147622756,1631,-2,9,1781
1375982437,5805,73.8700027465820300,26.8658008575439450,36.1885986328125000,271.0964965820312500,-132.6116943359375000,26.8683109283447270,25.6081199645996100,76,928,57,59,53,10390,2147317110,2148064685,2148092507,2147463122,2156619264,2163363894,2168120603,2149415424,1135,-2,9,32172
1375982492,5809,71.3300018310546900,26.9081993103027340,36.1856994628906250,297.1075134277344000,-134.1105957031250000,26.9159507751464840,24.6582603454589840,78,947,57,59,50,10391,2147407469,2148185316,2148249618,2147478089,2159024932,2167000283,2171742290,2149854198,1008,-1,9,24789
1375982547,5807,68.6399993896484400,26.9817008972167970,36.1862983703613300,316.0320129394531000,-136.2292938232422000,26.9833106994628900,24.0120697021484380,76,935,57,58,54,10391,2147512749,2148319890,2148381833,2147488256,2161790089,2170994304,2175576530,2150329316,1241,-1,9,14047
1375982602,5803,65.9899978637695300,27.0655994415283200,36.1861991882324200,338.5943908691406000,-138.7351989746093800,27.0630302429199220,23.2946796417236330,77,941,56,57,51,10386,2147632064,2148466148,2148512749,2147495853,2165051053,2175631058,2179820598,2150868882,1532,-1,9,25054
1375982657,5808,63.4799995422363300,27.0743999481201170,36.1792984008789060,341.5743103027344000,-139.2398986816406200,27.0790901184082030,23.2018795013427730,75,923,58,56,52,10385,2147757869,2148607853,2148631680,2147504091,2168369965,2180112749,2183669586,2151363136,1890,-1,9,51773
1375982715,5804,61.0400009155273440,27.2574005126953120,36.1535987854003900,347.8746948242187500,-144.5397949218750000,27.2479190826416000,22.9606895446777340,74,925,58,58,52,10383,2147898898,2148764434,2148764096,2147514468,2171879332,2184754112,2187588772,2151883949,2254,-2,9,262
1375982770,5804,59.3499984741210940,27.2915992736816400,36.1526985168457000,358.1763000488281000,-145.8901977539062500,27.2909793853759770,22.6567001342773440,73,924,57,58,52,10385,2147951341,2148815680,2148791789,2147519515,2173334957,2186186980,2188133440,2152008585,2184,-2,9,55669
1375982825,5809,57.9300003051757800,27.3034992218017580,36.1529006958007800,370.0559082031250000,-146.4264068603515600,27.3080806732177730,22.3287296295166000,73,919,56,59,52,10388,2147961746,2148804096,2148757650,2147517129,2173450651,2185586614,2186742482,2151885211,1798,-2,9,48175
1375982892,5805,56.0699996948242200,27.3850994110107420,36.1460990905761700,391.4977111816406000,-148.8739013671875000,27.3861808776855470,21.7478599548339840,72,916,57,58,52,10387,2148023844,2148857435,2148836278,2147547346,2174917028,2186789568,2187004278,2151987081,1149,-1,9,24102
1375983046,5807,52.9599990844726560,27.5025005340576170,36.1366004943847660,475.1571044921875000,-152.6459045410156200,27.5066509246826170,19.8185291290283200,72,912,55,59,53,10375,2148243126,2149081536,2148995867,2147559387,2180422043,2193348498,2191923958,2152700562,138,-2,9,20835
1375983110,5804,51.7900009155273440,27.5678005218505860,36.1295013427734400,489.7052001953125000,-154.9474029541015600,27.5802192687988280,19.5013999938964840,71,907,55,58,52,10365,2148603849,2149495954,2149387492,2147581001,2189389129,2205489142,2203158765,2154206738,3028,-2,9,47080
1375983170,5807,49.7700004577636700,27.6401996612548830,36.1217994689941400,472.6737060546875000,-157.2471008300781200,27.6537799835205080,19.8199195861816400,72,904,56,59,50,10369,2148735314,2149606061,2149436242,2147588507,2193660141,2209749129,2205764763,2154709238,2251,-2,9,46197
1375983230,5807,47.7099990844726560,27.7992992401123050,36.0982017517089840,460.4200134277344000,-161.8137054443359400,27.8000106811523440,20.0255203247070300,73,905,55,59,52,10372,2149360475,2150296448,2150121910,2147653366,2209846061,2230351149,2223755520,2157331547,2146,-2,8,46385
1375983316,5806,45.7999992370605500,28.0662994384765620,36.0306015014648440,515.8085937500000000,-169.0260009765625000,28.0313796997070300,18.8485393524169920,71,904,58,58,53,10374,2149319012,2150185627,2149937856,2147644928,2208964032,2227329563,2219569691,2156952310,2030,-1,9,14196
1375983482,5805,43.7799987792968750,28.1189994812011720,36.0145988464355500,568.2113037109375000,-172.1399993896484400,28.1314296722412100,17.8813209533691400,71,900,57,58,50,10382,2149856301,2150707282,2150375250,2147694281,2220967360,2240567817,2229562212,2158575954,1983,-2,9,42981
1375983568,5808,41.9099998474121100,28.1205005645751950,36.0091018676757800,546.3287963867188000,-172.0939025878906200,28.1299495697021500,18.2608604431152340,70,889,54,58,50,10380,2148794770,2149414902,2149009014,2147565046,2192523821,2201085677,2191962898,2153223817,1992,-2,9,46808
1375983654,5807,39.8899993896484400,28.1366996765136720,36.0080986022949200,529.6721801757812000,-172.6360015869140600,28.1473808288574220,18.5540008544921880,71,889,56,58,50,10381,2149997878,2150679067,2150163968,2147685796,2224209042,2239671369,2224499995,2158170962,2168,-1,9,34467
1375983731,5804,37.6899986267089840,28.1165008544921880,35.9959983825683600,514.0505981445312000,-172.1781005859375000,28.1326599121093750,18.8479804992675780,69,880,56,57,50,10373,2150854555,2151508553,2150863881,2147771282,2246426971,2264341074,2243359305,2161335067,2089,-1,9,62930
1375983778,5805,35.5999984741210940,28.1212005615234380,35.9948997497558600,511.1802978515625000,-172.2129974365234400,28.1337795257568360,18.9016990661621100,70,875,55,58,52,10382,2151025252,2151608274,2150878601,2147789613,2251781805,2267995931,2244142528,2161868297,1949,-2,9,15626